Guayaquil, Ecuador

10:27 PM -05 en Octubre 20, 2018 (GMT -0500)
Jose Joaquin de Olmedo

Tiempo Historia de SEGU - Agosto, 2018

Change the Weather History Date:

Viernes, Agosto 10, 2018

  Actual Average Record
Temperature  
Temperatura media 76 ° F -  
Temperatura máxima 85 ° F 80 ° F 89 ° F (1997)
Temperatura mínima 68 ° F 66 ° F 66 ° F (1999)
Cooling Degree Days 12    
Growing Degree Days 26 (Base 50)    
Moisture  
Punto de rocío 66 ° F    
Average Humidity 67    
Maximum Humidity 83    
Minimum Humidity 44    
Precipitación  
Precipitación 0.00 pul 0.00 pul - ()
Presión al nivel del mar  
Presión al nivel del mar 29.85 pul    
Viento  
Velocidad del viento 8 mph ()    
Velocidad máxima del viento 16 mph    
Max Gust Speed -    
Visibilidad 6.3 Millas    
Eventos      
Averages and records for this station are not official NWS values.
T = Trace of Precipitation, MM = Missing Value Source: Averaged Metar Reports

Daily Weather History Graph

Daily Weather History Graph

Search for Another Location

Airport or City:

Astronomía

Aug. 10, 2018 Salida Puesta
Hora real 6:23 AM -05 6:25 PM -05
Crepúsculo civil 6:02 AM -05 6:47 PM -05
Crepúsculo náutico 5:37 AM -05 7:12 PM -05
Crepúsculo astronómico 5:12 AM -05 7:37 PM -05
Luna 5:32 AM -05 (8/10) 5:55 PM -05 (8/10)
Horas de luz 12h 44m
Horas de luz
12h 02m
Creciente menguante, 1% of the Moon is Illuminated
Ago 10
Creciente menguante
Ago 11
Nueva
Ago 18
Cuarto creciente
Ago 26
Luna llena
Sep 2
Cuarto menguante

Hourly Weather History & Observations

Hora (-05) Temp. Índice de calor Punto de rocío Humedad Presión Visibilidad Wind Dir Velocidad del viento Velocidad de ráfagas Precip Eventos Condiciones
12:00 AM 69.8 ° F - 64.4 ° F 83% 29.92 pul 6.2 mi Norte - - N/A   Parcialmente nublado
2:00 AM 69.8 ° F - 64.4 ° F 83% 29.89 pul 6.2 mi SO 16.1 mph - N/A   Parcialmente nublado
3:00 AM 68.0 ° F - 62.6 ° F 83% 29.86 pul 6.2 mi SO 15.0 mph - N/A   Nubes dispersas
4:00 AM 69.8 ° F - 64.4 ° F 83% 29.83 pul 6.2 mi SO 10.4 mph - N/A   Muy nublado
6:00 AM 71.6 ° F - 64.4 ° F 78% 29.86 pul 6.2 mi OSO 4.6 mph - N/A   Muy nublado
8:00 AM 71.6 ° F - 64.4 ° F 78% 29.89 pul 6.2 mi OSO 4.6 mph - N/A   Muy nublado
10:00 AM 75.2 ° F - 64.4 ° F 69% 29.92 pul 6.2 mi OSO 3.5 mph - N/A   Nublado
11:00 AM 77.0 ° F - 66.2 ° F 69% 29.92 pul 6.2 mi SO 4.6 mph - N/A   Muy nublado
12:00 PM 80.6 ° F 82.7 ° F 66.2 ° F 61% 29.89 pul 6.2 mi Sur 4.6 mph - N/A   Nubes dispersas
1:00 PM 82 ° F - 66 ° F 50% 29.88 pul 9 mi SE 4.6 mph - -   Bruma
1:00 PM 82.4 ° F 84.6 ° F 66.2 ° F 58% 29.86 pul 6.2 mi SE 4.6 mph - N/A   Nubes dispersas
2:00 PM 84.2 ° F 86.6 ° F 66.2 ° F 55% 29.83 pul 6.2 mi SE 4.6 mph - N/A   Nubes dispersas
3:00 PM 84.2 ° F 87.3 ° F 68.0 ° F 58% 29.80 pul 6.2 mi SSE 8.1 mph - N/A   Nubes dispersas
4:00 PM 85 ° F - 67 ° F 44% 29.80 pul 6 mi SSE 8.1 mph - -   Bruma
4:00 PM 86.0 ° F 88.2 ° F 66.2 ° F 51% 29.80 pul 6.2 mi SSE 8.1 mph - N/A   Parcialmente nublado
5:00 PM 84.2 ° F 86.6 ° F 66.2 ° F 55% 29.77 pul 6.2 mi Sur 8.1 mph - N/A   Parcialmente nublado
6:00 PM 82.4 ° F 85.4 ° F 68.0 ° F 62% 29.80 pul 6.2 mi SSO 8.1 mph - N/A   Parcialmente nublado
7:00 PM 78 ° F - 67 ° F 62% 29.83 pul 6 mi SSO 12.7 mph - -   Bruma
7:00 PM 78.8 ° F - 68.0 ° F 69% 29.83 pul 6.2 mi SSO 12.7 mph - N/A   Parcialmente nublado
8:00 PM 75.2 ° F - 66.2 ° F 73% 29.83 pul - SO 15.0 mph - N/A   Despejado
9:00 PM 75.2 ° F - 66.2 ° F 73% 29.86 pul - SO 15.0 mph - N/A   Despejado
10:00 PM 75.2 ° F - 66.2 ° F 73% 29.89 pul - SO 16.1 mph - N/A   Despejado
11:00 PM 73.4 ° F - 66.2 ° F 78% 29.89 pul 6.2 mi SO 15.0 mph - N/A   Nubes dispersas